This is the latest recevied weather packets stored in our database for station/object KC5L-7. If no packets are shown the sender has not sent any weather packets the latest 10 day(s).
| Time | Temp. | Humidity | Pressure | Rain* | Wind** | Luminosity | Snow |
|---|---|---|---|---|---|---|---|
| 1777839682 | 25.56° C | 27% | 1017.4 hPa | 0 mm | - | - | - |
| 1777838482 | 25.56° C | 28% | 1017.7 hPa | 0 mm | - | - | - |
| 1777837882 | 25.56° C | 28% | 1018 hPa | 0 mm | - | - | - |
| 1777837282 | 25° C | 29% | 1018 hPa | 0 mm | - | - | - |
| 1777836682 | 25° C | 28% | 1018.2 hPa | 0 mm | - | - | - |
| 1777836083 | 25° C | 27% | 1018.1 hPa | 0 mm | - | - | - |
| 1777834882 | 25° C | 31% | 1018.5 hPa | 0 mm | - | - | - |
| 1777833682 | 24.44° C | 32% | 1018.8 hPa | 0 mm | - | - | - |
| 1777833082 | 24.44° C | 32% | 1019.2 hPa | 0 mm | - | - | - |
| 1777831882 | 23.89° C | 33% | 1019.6 hPa | 0 mm | - | - | - |
| 1777831282 | 23.89° C | 34% | 1019.9 hPa | 0 mm | - | - | - |
| 1777830683 | 23.33° C | 36% | 1020.1 hPa | 0 mm | - | - | - |
| 1777830082 | 23.33° C | 37% | 1020.4 hPa | 0 mm | - | - | - |
| 1777829483 | 23.33° C | 37% | 1020.6 hPa | 0 mm | - | - | - |
| 1777828882 | 23.33° C | 36% | 1020.7 hPa | 0 mm | - | - | - |
| 1777828284 | 22.78° C | 39% | 1020.9 hPa | 0 mm | - | - | - |
| 1777827682 | 22.78° C | 39% | 1021 hPa | 0 mm | - | - | - |
| 1777827083 | 22.22° C | 39% | 1021.1 hPa | 0 mm | - | - | - |
| 1777826483 | 22.22° C | 41% | 1021 hPa | 0 mm | - | - | - |
| 1777825882 | 22.22° C | 41% | 1021.2 hPa | 0 mm | - | - | - |
| 1777825283 | 21.67° C | 43% | 1021.3 hPa | 0 mm | - | - | - |
| 1777824082 | 21.67° C | 45% | 1021.6 hPa | 0 mm | - | - | - |
| 1777823482 | 21.11° C | 45% | 1021.7 hPa | 0 mm | - | - | - |
| 1777822882 | 21.11° C | 48% | 1021.7 hPa | 0 mm | - | - | - |
| 1777822282 | 20.56° C | 49% | 1021.8 hPa | 0 mm | - | - | - |
* Rain latest hour (hover to see other rain measurements)
** Current wind speed in m/s (hover to see current wind gust speed)